Zurück zum Katalog

PRAETORIAN SDA_620

AktivMilitärPO
NORAD 65583·PAYLOAD·🇺🇸 United States

Gestartet Sep 10, 2025 von Vandenberg Space Force Base

Loading…

Nächste Überflüge (nächste 24 Stunden)

TLE

AktuellSource: Space-Track

Epoche: Sep 14, 2026, 12:22 UTC

1 65583U 25203U   26257.51548257  .00000172  00000-0  14664-3 0  9992
2 65583  81.3002 288.2124 0006590 312.7620  47.2981 13.83211985 51043

Verfolge PRAETORIAN SDA_620 in Echtzeit mit AllMySat

Download on the App Store